Weather in Una

Russia / Arkhangel'skaya Oblast'     64°36′22″N   38°09′18″E
temp.,
°C
wind,
m/s
gust,
m/s
humid.,
%
clouds,
%
prec.,
mm/h
press.,
hPa
HPBL,
m
15 april, thu
thu1500:000w310775 0.0 1021447
03:00−1w310815 0.0 1023402
06:00−1wnw39805 0.0 1025466
09:00+3wnw36490 0.0 1027854
12:00+5wnw35381 0.0 10291464
15:00+6w34415 0.0 10291481
18:00+4sw36531 0.0 1030599
21:00+1ssw39665 0.0 1030196
16 april, fri
fri1600:000sw39789 0.0 1030188
03:000sw27875 0.0 1030150
06:000sw27885 0.0 1031190
09:00+5w36665 0.0 1032506
12:00+8nw46515 0.0 10331343
15:00+8n46491 0.0 10341113
18:00+6nne25515 0.0 1034498
21:00+2wsw00665 0.0 103510
17 april, sat
sat1700:00+2wsw22735 0.0 103517
03:00+1wsw228134 0.0 103548
06:00+1sw2783100 0.0 1035166
09:00+6w486329 0.0 1034519
12:00+10wnw474431 0.0 10341118
15:00+10nw464012 0.0 10331365
18:00+9nw354524 0.0 10331056
21:00+5nnw22675 0.0 103314
18 april, sun
sun1800:00+3n22775 0.0 103413
03:00+1ene22895 0.0 103423
06:00+1ene23945 0.0 103575
09:00+5ene22725 0.0 1036454
12:00+9e115636 0.0 10361117
15:00+10ene214865 0.0 10351491
18:00+9e225323 0.0 1035900
21:00+4se247656 0.0 103698
19 april, mon
mon1900:00+3sse2480100 0.0 103674
03:00+2sse248299 0.0 103666
06:00+2s28828 0.0 1036174
09:00+7ssw35675 0.0 1035402
12:00+9sw45572 0.0 1034734
15:00+11sw35502 0.0 1033928
18:00+10sw25510 0.0 1032566
21:00+7ssw22655 0.0 103111